Location: Newark
(34.1333°N, 7.9667°W)
Time: 15:12:26
(UTC+00:00)

BEESAT 2 - Visible Passes

Search period start: 31 May 2023 00:00
Search period end: 10 June 2023 00:00
Orbit: 431 x 467 km, 64.9° (Epoch: 30 May)

Date Brightness Start Highest point End Pass type
(mag) Time Alt. Az. Time Alt. Az. Time Alt. Az.
31 May ? 20:42:41 10° N 20:45:33 22° NE 20:47:11 16° E visible
31 May ? 22:18:57 10° WNW 22:20:48 18° W 22:20:48 18° W visible
01 Jun ? 20:06:32 10° NNE 20:08:25 14° NE 20:10:17 10° E visible
01 Jun ? 21:41:26 10° NW 21:44:44 35° WSW 21:45:03 34° SW visible
02 Jun ? 21:04:12 10° NW 21:07:47 68° WSW 21:09:19 31° SSE visible
03 Jun ? 20:27:08 10° NNW 20:30:42 62° ENE 20:33:35 14° SE visible
04 Jun ? 21:27:50 10° W 21:29:21 12° WSW 21:30:51 10° SW visible
05 Jun ? 20:49:30 10° WNW 20:52:19 22° WSW 20:55:06 10° SSW visible
06 Jun ? 20:11:48 10° NW 20:15:11 40° WSW 20:18:31 10° S visible
